Voltar ao catálogo

STARLINK-36953

AtivoComunicaçõesVLEO
NORAD 68010·PAYLOAD·🇺🇸 United States

Lançado Feb 27, 2026 de Vandenberg Space Force Base

Loading…

Próximas Passagens (próximas 24 horas)

TLE

AtualizadoSource: CelesTrak SupGP

Época: Sep 15, 2026, 04:23 UTC

1 68010C 26039AA  26258.18312500 -.00018926  00000+0 -68550-3 0  2580
2 68010  43.0045  58.5804 0001509 268.3938 176.3778 15.27587803    13

Acompanhe STARLINK-36953 em tempo real com AllMySat

Download on the App Store